Wind_Speed
12 11 11 10 10 10 9 9 9 9 8 8 7 7 7 7 6 6 5 5 5 5 5 5 4 4 4 4 3 3 3 2 2 2 2 3 3 4 5 5 5 6 7
14 13 12 12 12 12 12 11 11 10 10 9 9 8 8 8 8 7 7 7 6 6 6 6 5 4 5 4 4 4 3 3 2 2 2 2 3 3 4 5 5 6 6
15 15 15 14 14 14 13 13 13 12 12 11 10 10 10 10 10 9 8 8 8 7 7 7 6 6 5 5 5 5 4 3 3 2 2 2 3 3 3 4 5 6 6
16 17 17 17 16 16 16 15 14 14 14 13 12 12 11 11 11 10 10 9 9 8 8 8 8 7 7 7 6 6 6 5 4 3 3 2 2 3 3 3 4 5 5
17 18 18 18 18 18 18 17 16 15 15 15 14 14 13 12 12 12 11 11 11 10 9 9 9 8 8 7 8 7 7 6 5 4 3 3 2 2 3 3 3 4 4
18 18 18 19 19 19 19 19 19 18 17 17 17 16 16 15 14 14 13 13 12 12 11 10 10 10 9 8 8 9 8 7 6 6 5 4 3 3 3 2 3 3 4
20 20 20 20 20 20 21 20 20 20 19 19 19 18 18 18 17 16 16 15 14 14 13 12 12 12 11 10 10 9 9 9 8 7 6 6 5 4 4 3 3 3 3
22 22 22 22 21 21 22 22 21 21 21 21 21 21 20 20 19 19 18 17 17 16 15 14 13 13 12 12 12 11 11 10 9 9 8 7 6 6 5 4 3 3 3
24 24 23 23 23 23 23 23 23 23 23 22 23 23 23 22 21 21 20 20 19 18 17 16 15 15 15 14 14 14 13 12 11 10 10 9 8 7 6 6 5 5 4
26 26 26 26 25 25 24 25 25 25 24 24 24 24 25 25 24 23 22 22 21 21 20 19 18 18 17 16 16 15 15 14 13 12 11 10 10 9 8 8 7 6 6
29 29 29 29 28 27 27 26 27 27 27 27 27 26 26 27 26 26 24 24 23 23 23 22 21 20 19 19 18 17 17 16 15 14 13 12 12 11 10 9 9 8 7
32 32 31 31 31 30 30 29 29 29 29 29 29 29 28 28 28 28 27 27 26 25 25 24 24 23 21 20 20 19 19 18 17 16 14 14 13 13 12 11 11 9 9
34 34 34 34 33 33 32 32 31 31 31 30 30 31 31 31 31 31 30 30 29 28 28 27 26 25 24 23 22 22 21 20 18 18 16 15 15 14 14 14 12 12 10
37 36 36 36 36 35 35 34 34 33 32 32 32 32 33 33 33 34 33 33 32 32 31 30 30 28 27 26 25 24 23 22 21 20 19 18 17 16 16 16 15 14 13
39 38 38 37 37 37 37 36 36 37 36 35 34 34 35 35 36 36 36 35 35 35 34 33 32 31 30 28 27 26 25 24 23 22 21 20 19 18 18 18 17 16 15
41 40 39 39 39 39 38 38 38 39 38 38 37 36 37 37 38 38 38 37 37 36 35 35 34 33 32 31 29 28 27 26 24 23 22 22 21 20 19 19 19 18 17
42 42 41 40 41 40 40 40 40 40 40 40 40 39 39 39 40 40 40 39 39 38 37 37 36 35 34 33 32 31 29 29 27 26 24 23 23 22 21 20 20 20 19
43 43 43 43 42 42 41 41 42 42 42 42 42 41 41 40 41 41 41 41 40 40 39 39 38 37 36 35 34 33 32 31 30 29 27 26 25 24 23 22 22 22 21
44 44 44 45 44 44 44 43 43 43 43 43 43 42 42 41 41 42 43 43 42 42 42 41 41 40 39 38 37 36 35 34 33 31 30 28 27 26 25 25 24 24 23
45 44 44 45 46 46 45 45 44 43 44 44 43 43 43 43 42 42 43 44 45 44 44 44 43 42 42 40 39 38 38 37 35 34 33 31 29 28 27 27 27 26 26
45 45 45 45 46 47 46 46 45 45 45 45 45 45 44 44 43 44 45 46 46 47 47 46 46 45 44 43 41 41 40 39 38 37 35 34 32 31 29 29 29 29 28
45 45 45 46 46 48 47 47 47 47 46 46 46 45 45 45 45 46 45 46 47 48 49 48 48 47 46 45 44 44 43 42 41 40 38 36 35 33 32 31 31 31 30
43 45 46 47 47 48 48 48 48 49 48 48 47 46 46 46 46 47 46 46 47 48 49 49 50 49 48 47 47 46 45 45 44 43 41 39 37 36 35 34 33 33 32
41 43 45 46 47 47 48 48 49 49 49 50 49 48 47 47 47 47 47 47 47 48 49 50 50 50 50 49 49 48 47 47 46 45 43 42 40 39 37 37 36 35 34
41 42 44 45 46 47 48 49 49 49 49 48 49 49 48 48 49 49 48 48 49 49 50 51 51 51 51 51 51 50 49 49 48 47 45 44 43 41 40 39 38 37 37
41 41 43 43 45 47 48 48 49 49 48 48 50 50 49 48 48 49 50 49 49 49 50 51 52 52 52 52 51 51 50 50 49 48 47 46 45 44 42 42 40 39 39
Wind_Direction
243 244 245 246 244 240 238 240 238 236 239 240 244 246 247 248 247 247 250 253 247 247 255 258 255 249 246 244 251 259 264 276 291 311 340 358 13 27 32 34 36 35 33
248 248 250 249 247 245 243 244 243 239 241 244 246 249 250 250 250 251 253 256 252 251 254 255 254 254 246 247 252 253 261 268 274 291 319 342 1 17 23 26 31 33 30
251 250 252 254 250 249 247 246 245 243 242 245 246 249 250 250 250 251 254 255 254 253 251 252 252 248 246 253 253 252 254 261 262 272 297 322 341 355 6 15 20 23 25
253 253 253 254 252 251 250 248 245 243 243 246 248 249 250 251 250 251 252 254 254 254 252 249 246 247 249 252 254 251 247 251 257 264 282 303 324 341 353 5 11 16 21
253 255 255 253 251 250 250 249 248 245 243 246 249 250 251 252 252 251 253 253 254 255 254 250 245 247 250 250 249 250 248 247 251 258 268 278 296 322 346 358 7 12 17
251 253 255 251 249 249 249 249 248 248 247 247 248 250 251 252 253 253 254 252 253 254 256 252 247 249 250 248 246 245 247 247 250 254 263 265 271 289 307 326 352 7 11
251 252 254 252 251 250 250 250 250 249 249 248 248 249 250 252 252 253 253 252 253 252 253 254 250 250 251 248 245 243 242 243 244 250 256 259 260 271 280 288 316 337 347
252 252 254 254 253 254 252 250 251 250 249 249 248 248 249 250 251 252 252 252 253 252 251 252 252 251 253 251 246 244 242 242 243 246 249 251 258 262 266 269 281 298 316
253 253 253 254 255 255 255 254 253 252 250 249 249 249 249 249 250 250 251 252 252 253 253 254 252 252 252 252 249 245 244 244 245 245 247 249 252 259 262 266 269 276 291
253 253 253 253 255 254 254 254 254 254 252 250 250 250 250 250 250 250 250 251 252 252 254 255 254 253 251 250 249 247 244 244 244 245 246 248 249 254 258 261 269 275 280
254 254 254 254 255 254 255 256 255 254 253 252 251 250 250 249 249 250 250 250 251 251 252 254 253 253 252 250 248 246 245 244 243 244 247 248 249 252 258 261 264 271 278
255 255 255 255 255 255 255 255 254 254 254 253 251 250 250 250 249 249 250 251 251 251 252 252 252 251 251 250 247 246 246 245 245 245 247 248 250 253 256 260 261 264 272
254 255 255 256 255 255 255 254 253 253 253 253 253 251 251 250 250 250 250 250 250 250 251 252 251 250 250 248 247 246 245 245 246 245 246 248 250 253 255 258 259 259 263
253 254 255 255 255 255 255 254 253 253 253 253 254 254 252 251 250 250 250 250 250 250 250 250 250 249 247 247 247 247 245 245 246 246 247 248 250 253 255 256 257 258 257
252 253 254 255 255 254 254 254 254 254 254 254 255 255 254 253 251 250 250 249 249 249 248 248 248 247 246 245 246 246 246 245 246 247 247 248 250 252 254 255 255 256 256
251 252 253 254 255 255 254 254 256 256 255 255 255 256 256 255 253 250 249 248 247 248 247 246 246 246 245 245 245 245 246 245 245 246 248 249 250 252 253 255 254 254 255
251 252 253 254 255 255 256 256 256 257 257 256 256 256 256 256 254 250 248 247 246 246 246 246 245 245 245 244 244 244 245 245 245 247 248 250 251 252 253 254 255 254 255
251 252 253 254 255 256 257 257 257 257 258 257 256 256 256 256 254 251 248 246 245 245 245 245 244 245 244 244 243 244 244 245 246 247 249 250 252 253 253 254 255 254 254
251 253 254 255 255 256 256 256 257 257 257 256 256 256 257 256 255 252 249 246 245 244 244 244 244 244 243 243 243 243 244 245 245 246 248 250 251 252 253 254 255 254 253
251 253 255 255 255 255 255 256 256 256 256 256 256 255 256 255 255 253 251 248 246 244 244 244 244 244 243 243 243 243 244 245 246 246 247 248 250 252 253 254 255 254 253
253 255 256 256 256 255 255 255 256 256 256 256 255 255 254 254 254 253 252 250 248 246 244 244 243 244 243 242 242 243 244 245 246 247 248 249 250 252 253 253 254 254 254
255 255 257 257 257 256 256 256 256 256 256 256 255 254 253 253 254 254 253 251 250 247 245 244 243 243 243 243 243 243 243 244 245 246 248 250 251 251 252 253 254 254 254
257 257 257 257 257 257 257 257 256 256 256 255 254 253 254 254 254 253 254 252 251 248 245 244 243 243 243 243 243 243 244 244 245 245 246 248 251 252 253 253 253 254 253
259 259 259 259 259 258 257 257 256 256 256 256 255 255 254 254 254 252 253 252 251 249 246 243 243 243 242 242 242 244 245 245 246 246 246 248 250 252 252 251 252 252 252
262 263 262 260 259 259 258 258 257 257 256 255 255 255 255 254 253 252 252 252 251 250 248 245 243 243 242 242 242 243 244 245 246 246 246 247 249 250 250 251 251 251 251
264 265 263 262 261 260 259 258 258 257 257 256 255 255 254 253 252 252 251 250 250 249 247 245 244 243 243 243 243 244 244 245 245 246 247 248 248 248 249 250 251 251 251
Height
5837 5837 5838 5839 5840 5841 5841 5842 5843 5844 5845 5845 5846 5847 5848 5849 5850 5850 5851 5852 5853 5853 5854 5854 5855 5855 5856 5856 5857 5857 5857 5857 5857 5857 5857 5857 5857 5857 5856 5856 5856 5855 5854
5834 5835 5836 5837 5838 5839 5840 5840 5841 5842 5843 5844 5845 5846 5846 5847 5848 5849 5850 5851 5851 5852 5853 5853 5854 5854 5855 5855 5856 5856 5857 5857 5857 5857 5857 5857 5857 5857 5856 5856 5856 5855 5854
5831 5832 5833 5834 5835 5836 5837 5838 5839 5840 5841 5842 5843 5844 5845 5846 5846 5847 5848 5849 5850 5851 5851 5852 5852 5853 5854 5854 5855 5855 5856 5856 5856 5857 5857 5857 5856 5856 5856 5856 5856 5855 5855
5828 5829 5830 5831 5832 5833 5834 5835 5836 5837 5838 5839 5840 5842 5842 5843 5844 5845 5846 5847 5848 5849 5850 5850 5851 5852 5852 5853 5854 5854 5855 5855 5856 5856 5856 5856 5856 5856 5856 5855 5855 5855 5855
5824 5826 5827 5828 5828 5830 5831 5832 5833 5834 5835 5836 5838 5839 5840 5841 5842 5843 5844 5845 5846 5847 5848 5849 5849 5850 5851 5851 5852 5853 5853 5854 5854 5855 5855 5855 5855 5855 5855 5855 5855 5855 5854
5821 5822 5823 5824 5825 5826 5827 5829 5830 5831 5832 5833 5834 5836 5837 5838 5839 5840 5841 5843 5844 5845 5846 5846 5847 5848 5849 5850 5850 5851 5852 5852 5853 5853 5854 5854 5854 5855 5855 5855 5854 5854 5854
5817 5818 5819 5820 5821 5822 5823 5824 5826 5827 5829 5830 5831 5832 5833 5835 5836 5837 5838 5840 5841 5842 5843 5844 5845 5846 5847 5848 5848 5849 5850 5851 5851 5852 5852 5853 5853 5853 5854 5854 5854 5854 5854
5812 5813 5814 5815 5816 5818 5819 5820 5822 5823 5824 5826 5827 5828 5830 5831 5832 5833 5835 5836 5837 5839 5840 5841 5842 5843 5844 5845 5846 5847 5848 5849 5849 5850 5851 5851 5852 5852 5852 5853 5853 5853 5853
5807 5808 5809 5811 5812 5813 5814 5815 5817 5818 5820 5821 5822 5824 5825 5827 5828 5829 5831 5832 5834 5835 5836 5838 5839 5840 5841 5842 5843 5844 5845 5846 5847 5848 5849 5849 5850 5850 5851 5851 5852 5852 5852
5801 5802 5804 5805 5806 5808 5809 5810 5812 5813 5815 5816 5817 5819 5820 5822 5823 5825 5826 5828 5829 5831 5832 5834 5835 5836 5838 5839 5840 5841 5842 5843 5844 5845 5846 5847 5848 5848 5849 5850 5850 5850 5850
5795 5796 5798 5799 5800 5802 5803 5804 5806 5808 5809 5810 5812 5813 5814 5816 5818 5819 5821 5823 5824 5826 5828 5829 5831 5832 5834 5835 5836 5838 5839 5840 5841 5842 5843 5844 5845 5846 5847 5847 5848 5848 5848
5787 5789 5791 5792 5794 5795 5797 5798 5799 5801 5803 5804 5805 5807 5808 5810 5811 5813 5815 5817 5819 5820 5822 5824 5826 5827 5829 5831 5832 5834 5835 5836 5838 5839 5840 5841 5842 5843 5844 5845 5845 5846 5846
5779 5781 5783 5785 5786 5788 5789 5791 5792 5794 5795 5797 5798 5800 5801 5803 5805 5806 5808 5810 5812 5814 5816 5818 5820 5822 5824 5826 5828 5829 5831 5832 5834 5835 5837 5838 5839 5840 5841 5842 5842 5843 5844
5771 5773 5775 5776 5778 5780 5781 5783 5784 5786 5787 5789 5790 5792 5793 5795 5797 5799 5800 5802 5805 5807 5809 5811 5813 5816 5818 5820 5822 5824 5826 5828 5829 5831 5832 5834 5835 5836 5837 5838 5839 5840 5840
5761 5763 5765 5767 5769 5771 5772 5774 5776 5777 5779 5780 5781 5783 5785 5786 5788 5790 5792 5794 5796 5798 5801 5803 5806 5808 5811 5814 5816 5818 5821 5822 5824 5826 5828 5829 5830 5832 5833 5834 5835 5836 5837
5750 5753 5755 5757 5759 5761 5763 5765 5767 5768 5769 5771 5772 5774 5775 5777 5779 5781 5783 5785 5787 5789 5792 5795 5797 5800 5803 5806 5809 5812 5814 5816 5819 5820 5822 5824 5826 5827 5828 5829 5830 5832 5833
5739 5742 5744 5747 5749 5750 5752 5754 5756 5757 5759 5761 5762 5764 5765 5767 5768 5770 5772 5775 5777 5780 5783 5786 5789 5792 5795 5798 5802 5805 5807 5810 5812 5815 5816 5818 5820 5822 5823 5824 5826 5827 5828
5728 5731 5733 5735 5737 5739 5741 5743 5745 5746 5748 5750 5751 5753 5754 5756 5757 5759 5761 5764 5767 5770 5773 5776 5779 5783 5786 5790 5793 5797 5800 5803 5805 5808 5810 5812 5814 5816 5818 5819 5821 5822 5823
5716 5719 5721 5724 5726 5727 5729 5731 5733 5735 5736 5738 5739 5741 5743 5744 5746 5748 5750 5753 5756 5759 5763 5766 5770 5773 5777 5780 5784 5788 5791 5795 5798 5801 5803 5806 5808 5810 5812 5813 5815 5816 5818
5704 5706 5709 5711 5713 5715 5717 5719 5721 5723 5724 5726 5727 5729 5731 5733 5735 5736 5738 5741 5744 5748 5751 5756 5759 5763 5767 5771 5775 5779 5782 5786 5789 5793 5796 5798 5801 5803 5805 5807 5808 5810 5812
5691 5694 5696 5698 5700 5702 5705 5707 5709 5711 5713 5714 5715 5717 5719 5721 5723 5724 5726 5729 5732 5736 5740 5744 5748 5752 5756 5760 5765 5769 5773 5777 5780 5784 5787 5790 5792 5795 5797 5799 5801 5803 5805
5680 5682 5684 5686 5687 5689 5691 5693 5696 5698 5700 5702 5703 5705 5707 5709 5710 5712 5714 5717 5720 5723 5727 5731 5736 5741 5745 5749 5754 5758 5762 5767 5771 5774 5778 5781 5783 5786 5788 5791 5793 5795 5797
5668 5669 5671 5673 5675 5677 5678 5680 5682 5684 5686 5688 5690 5692 5694 5696 5698 5699 5701 5704 5707 5710 5714 5719 5724 5729 5734 5738 5742 5747 5751 5756 5760 5765 5768 5771 5774 5777 5779 5782 5784 5787 5789
5657 5658 5659 5661 5662 5664 5665 5666 5668 5670 5672 5675 5677 5679 5681 5683 5684 5686 5689 5691 5694 5697 5701 5706 5711 5716 5721 5725 5730 5735 5740 5745 5749 5753 5757 5761 5764 5767 5770 5772 5775 5777 5779
5647 5647 5647 5648 5649 5650 5651 5652 5654 5656 5657 5660 5662 5665 5667 5669 5671 5673 5676 5678 5681 5684 5688 5693 5698 5703 5708 5713 5718 5723 5728 5732 5736 5741 5746 5750 5753 5756 5759 5762 5765 5768 5770
5635 5635 5636 5636 5637 5637 5638 5639 5640 5642 5643 5645 5648 5651 5653 5656 5658 5660 5663 5665 5668 5672 5675 5679 5685 5690 5695 5700 5705 5710 5715 5720 5724 5728 5734 5738 5742 5746 5749 5752 5755 5757 5760